User: anonymous   Login
Location: Libas
(9.8833°N, 125.9833°E)
Time: 09:22:12
(UTC+00:00)
Language:

USA 267 - Orbit

View from above orbital plane
View from above orbital plane
View from above satellite
View from above satellite

Ground track
Ground track

The orbit data is extracted from the following two-line orbital elements,

1 41334U 16010A   21006.71566429 0.00000000  00000-0  00000-0 0    05
2 41334 122.9965 158.2735 0004551  97.9110 262.0890 13.41420947    06
Epoch (UTC): 06 January 2021 17:10:33
Eccentricity: 0.0004551
inclination: 122.9965°
perigee height: 1100 km
apogee height: 1107 km
right ascension of ascending node: 158.2735°
argument of perigee: 97.9110°
revolutions per day: 13.41420947
mean anomaly at epoch: 262.0890°
orbit number at epoch: 0

The dashed part of the orbit path shows where the satellite is in the earth's shadow,  

DLR